Regional Weather Roundup
Issued by NWS

Home | Current Version | Previous Version | Text Only | Print | Product List | Glossary On
Versions: 1 2 3 4 5 6 7 8 9 10 11 12 13 14 15 16 17 18 19 20 21 22 23 24 25 26 27 28
000
ASPQ40 PGUM 211512
RWRPQ
WEATHER ROUNDUP FOR THE MARIANAS AND MICRONESIA
NATIONAL WEATHER SERVICE TIYAN GU
100 AM CHST WED FEB 22 2017

GUZ001>004-211600-
MARIANA ISLANDS-

CITY           SKY/WX    TMP DP  RH WIND       PRES   REMARKS
GUAM AIRPORT   CLEAR     79  75  89 NE7       29.98F
ANDERSEN AFB   MOCLDY    79  73  83 E14       29.99F
ROTA AIRPORT   NOT AVBL
TINIAN AP      NOT AVBL
SAIPAN AP      PTCLDY    77  75  94 NE10      30.00F

$$

PMZ161-211600-
REPUBLIC OF PALAU-

CITY           SKY/WX    TMP DP  RH WIND       PRES   REMARKS
KOROR AP       CLOUDY    81  77  89 E5        29.85F
KOROR WSO      MOCLDY    81  75  83 CALM      29.88F

$$

PMZ171>174-211600-
FEDERATED STATES OF MICRONESIA-

CITY           SKY/WX    TMP DP  RH WIND       PRES   REMARKS
YAP AIRPORT    MOCLDY    77  75  94 E9        29.88F
CHUUK AP       MOCLDY    82  75  78 NE12      29.87F
POHNPEI AP     NOT AVBL
POHNPEI WSO    CLOUDY    82  73  74 NE7       29.89F
KOSRAE AP      NOT AVBL

$$

PMZ181-211600-
REPUBLIC OF THE MARSHALL ISLANDS-

CITY           SKY/WX    TMP DP  RH WIND       PRES   REMARKS
KWAJALEIN AP   PTCLDY    81  75  83 NE17G25   29.85F
MAJURO AP      NOT AVBL
MAJURO WSO     NOT AVBL

$$





USA.gov is the U.S. government's official web portal to all federal, state and local government web resources and services.